(318445) = 2005 CF60

Discovered at Socorro on 2005-02-03 by LINEAR.

Orbit

Orbit type: Main Belt

Note: WebGL enabled browser required.

epoch2023-02-25.0
epoch JD2460000.5
perihelion date2022-03-08.47496
perihelion JD2459646.97496
argument of perihelion (°)127.93455
ascending node (°)5.78935
inclination (°)5.54749
eccentricity0.1368770
perihelion distance (AU)1.9629922
Tisserand w.r.t. Jupiter3.6
ΔV w.r.t. Earth (km/sec)8.8
semimajor axis (AU)2.2742900
mean anomaly (°)101.59100
mean daily motion (°/day)0.28736580
aphelion distance (AU)2.586
period (years)3.43
P-vector [x]-0.69081130
P-vector [y]0.62934433
P-vector [z]0.35595712
Q-vector [x]-0.72296934
Q-vector [y]-0.60788099
Q-vector [z]-0.32832307
absolute magnitude17.64
phase slope0.15
uncertainty0
referenceMPO 745323
observations used293
oppositions11
arc length (days)6712
first opposition used2005
last opposition used2023
residual rms (arc-secs)0.75
perturbers coarse indicatorM-v
perturbers precise indicator003Ek
first observation date used2005-02-03.0
last observation date used2023-06-21.0
computer nameMPCLINUX
JD of orbit computation2456494.381108
perihelion JD uncertainty (days)2.2282E-04
argument of perihelion uncertainty (°)9.5622E-05
ascending node uncertainty (°)6.9807E-05
inclination uncertainty (°)1.1663E-05
eccentricity uncertainty 1.2378E-07
perihelion distance uncertainty (AU)2.6251E-07
Minimum Orbit Intersection Distances (in AU)
for orbit epoch: 2460000.5, reference: E2023-M85
Mercury1.61881
Venus1.24492
Earth0.98233
Mars0.30978
Jupiter2.44448
Saturn6.96473
Uranus16.4171
Neptune27.4117

Observations

292 total observations over interval: 2005 02 03.36424 – 2023 06 21.462438
These data are available for download (format description).

Date (UT) J2000 RA J2000 Dec Magn Location Ref
2005 02 03.36424 10 26 09.61 +17 43 18.1 19.5   704 – Lincoln Laboratory ETS, New Mexico MPS 126848
2005 02 03.37710 10 26 08.87 +17 43 21.1 19.6   704 – Lincoln Laboratory ETS, New Mexico MPS 126848
2005 02 03.38989 10 26 08.14 +17 43 22.9 19.9   704 – Lincoln Laboratory ETS, New Mexico MPS 126848
2005 02 03.40276 10 26 07.41 +17 43 25.3 19.4   704 – Lincoln Laboratory ETS, New Mexico MPS 126848
2005 02 03.41624 10 26 06.66 +17 43 27.9 19.3   704 – Lincoln Laboratory ETS, New Mexico MPS 126848
2005 02 09.29803 10 20 29.64 +18 01 36.3 18.9 R 699 – Lowell Observatory-LONEOS MPS 126848
2005 02 09.32236 10 20 28.09 +18 01 40.0   699 – Lowell Observatory-LONEOS MPS 126848
2005 02 09.34668 10 20 26.43 +18 01 46.6   699 – Lowell Observatory-LONEOS MPS 126848
2005 02 09.37104 10 20 24.87 +18 01 49.7   699 – Lowell Observatory-LONEOS MPS 126848
2005 02 14.35163 10 15 10.02 +18 15 42.4 19.8   704 – Lincoln Laboratory ETS, New Mexico MPS 126848
2005 02 14.36454 10 15 09.22 +18 15 43.5 20.4   704 – Lincoln Laboratory ETS, New Mexico MPS 126848
2005 02 14.37702 10 15 08.27 +18 15 46.0 20.0   704 – Lincoln Laboratory ETS, New Mexico MPS 126848
2005 02 14.39006 10 15 07.56 +18 15 47.8 19.9   704 – Lincoln Laboratory ETS, New Mexico MPS 126848
2005 03 03.90053 09 56 41.93 +18 38 11.3 19.0 R A35 – Hormersdorf Observatory MPS 128042
2005 03 03.90415 09 56 41.74 +18 38 11.3 19.0 R A35 – Hormersdorf Observatory MPS 128042
2005 03 04.16071 09 56 27.63 +18 38 08.2 19.1 R G98 – Calvin-Rehoboth Observatory, Rehoboth MPS 128042
2005 03 04.18159 09 56 26.42 +18 38 08.0 18.8 R G98 – Calvin-Rehoboth Observatory, Rehoboth MPS 128042
2005 03 04.20227 09 56 25.22 +18 38 07.8 18.9 R G98 – Calvin-Rehoboth Observatory, Rehoboth MPS 128042
2005 03 04.22318 09 56 23.99 +18 38 07.4 18.8 R G98 – Calvin-Rehoboth Observatory, Rehoboth MPS 128042
2005 03 04.24398 09 56 22.75 +18 38 07.2 18.5 R G98 – Calvin-Rehoboth Observatory, Rehoboth MPS 128042
2005 03 04.26534 09 56 21.49 +18 38 07.0 19.0 R G98 – Calvin-Rehoboth Observatory, Rehoboth MPS 128042
2005 03 04.29194 09 56 19.92 +18 38 07.0 19.3   704 – Lincoln Laboratory ETS, New Mexico MPS 127226
2005 03 04.30669 09 56 19.12 +18 38 06.5 19.9   704 – Lincoln Laboratory ETS, New Mexico MPS 127226
2005 03 04.35035 09 56 16.57 +18 38 05.7 19.9   704 – Lincoln Laboratory ETS, New Mexico MPS 127226
2005 03 12.23128 09 49 51.01 +18 29 38.1 19.9   704 – Lincoln Laboratory ETS, New Mexico MPS 129150
2005 03 12.24282 09 49 50.46 +18 29 36.3 19.9   704 – Lincoln Laboratory ETS, New Mexico MPS 129150
2005 03 12.25428 09 49 49.98 +18 29 35.4 19.9   704 – Lincoln Laboratory ETS, New Mexico MPS 129150
2005 03 12.26642 09 49 49.36 +18 29 34.7 20.3   704 – Lincoln Laboratory ETS, New Mexico MPS 129150
2007 11 12.31025 03 54 05.36 +28 15 40.1 20.1 V G96 – Mt. Lemmon Survey MPS 250272
2007 11 12.31736 03 54 04.86 +28 15 40.1 20.0 V G96 – Mt. Lemmon Survey MPS 250272
2007 11 12.32453 03 54 04.35 +28 15 40.5 20.1 V G96 – Mt. Lemmon Survey MPS 250272
2007 11 12.33162 03 54 03.88 +28 15 40.6 19.8 V G96 – Mt. Lemmon Survey MPS 250272
2007 11 17.26058 03 48 18.81 +28 14 36.8 19.5   704 – Lincoln Laboratory ETS, New Mexico MPS 252036
2007 11 17.27329 03 48 17.86 +28 14 35.2 19.9   704 – Lincoln Laboratory ETS, New Mexico MPS 252036
2007 11 17.28601 03 48 16.97 +28 14 35.8 20.3   704 – Lincoln Laboratory ETS, New Mexico MPS 252036
2007 11 17.29873 03 48 15.94 +28 14 35.2 19.9   704 – Lincoln Laboratory ETS, New Mexico MPS 252036
2007 11 20.19795 03 44 45.67 +28 11 58.9 18.9 V G96 – Mt. Lemmon Survey MPS 250272
2007 11 20.20245 03 44 45.38 +28 11 58.6 19.2 V G96 – Mt. Lemmon Survey MPS 250272
2007 11 20.20699 03 44 45.02 +28 11 58.3 19.1 V G96 – Mt. Lemmon Survey MPS 250272
2007 11 20.21147 03 44 44.70 +28 11 58.1 19.4 V G96 – Mt. Lemmon Survey MPS 250272
2007 12 03.18498 03 29 15.01 +27 44 58.1 19.8   704 – Lincoln Laboratory ETS, New Mexico MPS 252036
2007 12 03.19784 03 29 14.15 +27 44 55.2 20.3   704 – Lincoln Laboratory ETS, New Mexico MPS 252036
2007 12 03.21082 03 29 13.31 +27 44 53.8 20.2   704 – Lincoln Laboratory ETS, New Mexico MPS 252036
2007 12 03.23659 03 29 11.47 +27 44 48.8 20.5   704 – Lincoln Laboratory ETS, New Mexico MPS 252036
2007 12 04.22071 03 28 06.13 +27 41 57.9 20.4 V 703 – Catalina Sky Survey MPS 250273
2007 12 04.22778 03 28 05.59 +27 41 55.4 20.0 V 703 – Catalina Sky Survey MPS 250273
2007 12 04.23476 03 28 05.19 +27 41 54.9 19.8 V 703 – Catalina Sky Survey MPS 250273
2007 12 04.24182 03 28 04.80 +27 41 52.9 19.9 V 703 – Catalina Sky Survey MPS 250273
2007 12 17.36499 03 16 05.95 +26 58 44.5 19.6 V G96 – Mt. Lemmon Survey MPS 250273
2007 12 17.36552 03 16 05.95 +26 58 44.4 20.0 V G96 – Mt. Lemmon Survey MPS 250273
2007 12 17.36993 03 16 05.73 +26 58 42.9 19.9 V G96 – Mt. Lemmon Survey MPS 250273
2007 12 17.37047 03 16 05.73 +26 58 43.0 19.7 V G96 – Mt. Lemmon Survey MPS 250273
2007 12 17.37493 03 16 05.52 +26 58 41.9 19.7 V G96 – Mt. Lemmon Survey MPS 250273
2007 12 17.37546 03 16 05.48 +26 58 42.0 19.9 V G96 – Mt. Lemmon Survey MPS 250273
2007 12 17.37990 03 16 05.30 +26 58 40.9 19.9 V G96 – Mt. Lemmon Survey MPS 250273
2007 12 17.38044 03 16 05.26 +26 58 41.0 19.7 V G96 – Mt. Lemmon Survey MPS 250273
2010 09 13.461841 00 10 12.153 -00 23 45.81 20.43 i F51 – Pan-STARRS 1, Haleakala MPS 365508
2010 09 13.473349 00 10 11.461 -00 23 48.50 20.52 i F51 – Pan-STARRS 1, Haleakala MPS 365508
2010 11 06.23146 23 28 46.52 -02 39 13.9 20.3 V G96 – Mt. Lemmon Survey MPS 355321
2010 11 06.23921 23 28 46.45 -02 39 13.8 20.6 V G96 – Mt. Lemmon Survey MPS 355321
2010 11 06.24699 23 28 46.34 -02 39 12.9 20.7 V G96 – Mt. Lemmon Survey MPS 355321
2010 11 06.25492 23 28 46.27 -02 39 12.4 21.1 V G96 – Mt. Lemmon Survey MPS 355321
2012 02 22.33959 12 15 26.91 +01 38 23.4 20.2 V 691 – Steward Observatory, Kitt Peak-Spacewatch MPS 413006
2012 02 22.35751 12 15 26.19 +01 38 24.6 20.1 V 691 – Steward Observatory, Kitt Peak-Spacewatch MPS 413006
2012 02 22.37546 12 15 25.44 +01 38 25.5 20.2 V 691 – Steward Observatory, Kitt Peak-Spacewatch MPS 413006
2012 02 23.309468 12 14 49.47 +01 39 31.8 22.5 u 309 – Cerro Paranal MPS 804646
2012 02 23.312882 12 14 49.32 +01 39 32.0 22.2 u 309 – Cerro Paranal MPS 804646
2012 02 23.316597 12 14 49.18 +01 39 32.3 22.3 u 309 – Cerro Paranal MPS 804646
2012 02 23.320313 12 14 49.01 +01 39 32.5 23.3 u 309 – Cerro Paranal MPS 804646
2012 02 26.29398 12 12 44.37 +01 43 18.0 20.4 V 691 – Steward Observatory, Kitt Peak-Spacewatch MPS 414169
2012 02 26.31192 12 12 43.53 +01 43 19.4 20.5 V 691 – Steward Observatory, Kitt Peak-Spacewatch MPS 414169
2012 02 26.32987 12 12 42.68 +01 43 21.1 20.1 V 691 – Steward Observatory, Kitt Peak-Spacewatch MPS 414169
2012 03 12.20779 11 59 05.20 +02 15 13.2   691 – Steward Observatory, Kitt Peak-Spacewatch MPS 417170
2012 03 12.22551 11 59 04.06 +02 15 15.6   691 – Steward Observatory, Kitt Peak-Spacewatch MPS 417170
2012 03 12.24326 11 59 02.93 +02 15 20.4   691 – Steward Observatory, Kitt Peak-Spacewatch MPS 417170
2012 03 17.28627 11 53 44.48 +02 28 09.4 19.6 V 703 – Catalina Sky Survey MPS 418391
2012 03 17.29512 11 53 43.83 +02 28 11.7 19.0 V 703 – Catalina Sky Survey MPS 418391
2012 03 17.30397 11 53 43.22 +02 28 12.5 18.9 V 703 – Catalina Sky Survey MPS 418391
2012 03 17.31287 11 53 42.61 +02 28 14.3 19.4 V 703 – Catalina Sky Survey MPS 418391
2012 03 17.40270 11 53 36.70 +02 28 27.0 19.1 V G96 – Mt. Lemmon Survey MPS 418391
2012 03 17.40409 11 53 36.63 +02 28 27.3 19.0 V G96 – Mt. Lemmon Survey MPS 418391
2012 03 17.40546 11 53 36.52 +02 28 27.4 19.1 V G96 – Mt. Lemmon Survey MPS 418391
2012 03 17.40685 11 53 36.42 +02 28 27.6 19.1 V G96 – Mt. Lemmon Survey MPS 418391
2012 03 21.26855 11 49 32.13 +02 37 56.5 18.7   704 – Lincoln Laboratory ETS, New Mexico MPS 418391
2012 03 21.27937 11 49 31.43 +02 37 56.2 19.9   704 – Lincoln Laboratory ETS, New Mexico MPS 418391
2012 03 21.28641 11 49 30.97 +02 37 58.4 19.2 V G96 – Mt. Lemmon Survey MPS 418391
2012 03 21.29030 11 49 30.74 +02 37 58.9 19.7   704 – Lincoln Laboratory ETS, New Mexico MPS 418391
2012 03 21.29167 11 49 30.61 +02 37 59.3 19.1 V G96 – Mt. Lemmon Survey MPS 418391
